SCP
-0 -0 -0 -0 -0 -0 0 0 -0 0 0 0 0 0 0 0 0 0 0 0 0 -0 0 0 -0 -0 -0 -0 -0 -0 -0 0 0 0 0 0 -0 0 -0 -0 0 0 -0
-0 -0 -0 -0 -0 -0 -0 0 -0 -0 -0 0 0 0 0 0 0 0 0 -0 0 0 0 0 -0 -0 -0 -0 -0 0 0 -0 -0 0 0 0 0 0 0 0 0 -0 -0
-0 -0 -0 -0 -0 -0 -0 -0 0 0 -0 -0 0 0 0 0 0 0 0 -0 0 -0 0 0 0 0 -0 0 0 -0 -0 0 0 -0 0 0 0 0 0 0 0 0 -0
-0 -0 -0 -0 -0 -0 0 0 -0 0 -0 -0 -0 -0 0 0 0 0 0 0 0 -0 0 -0 0 -0 0 0 0 -0 -0 0 -0 -0 0 0 0 0 0 0 0 0 -0
-0 -0 -0 -0 -0 -0 -0 0 0 0 -0 -0 -0 -0 0 0 0 0 0 0 -0 0 -0 -0 -0 -0 -0 0 0 -0 -0 -0 -0 0 0 0 0 -0 0 0 0 0 0
-0 -0 -0 -0 -0 -0 -0 -0 -0 -0 -0 0 0 -0 -0 -0 0 -0 -0 -0 0 0 0 0 -0 -0 0 0 -0 0 0 -0 -0 0 0 -0 0 0 0 -0 -0 0 0
-0 -0 -0 -0 -0 -0 -0 -0 -0 -0 0 0 0 0 -0 0 0 0 0 0 -0 0 0 0 0 0 -0 -0 -0 0 -0 -0 -0 -0 -0 0 0 0 0 -0 -0 -0 0
-0 -0 -0 -0 -0 -0 -0 -0 -0 -0 0 -0 -0 0 0 0 0 0 0 -0 0 0 0 0 -0 -0 -0 -0 -0 -0 0 -0 -0 -0 -0 -0 -0 -0 0 0 0 -0 -0
-0 -0 -0 -0 -0 -0 -0 -0 -0 -0 0 0 0 0 0 0 0 0 0 0 0 0 0 -0 0 0 -0 0 -0 0 0 0 -0 -0 0 0 0 -0 -0 0 0 0 0
-0 -0 -0 -0 -0 -0 -0 0 -0 -0 -0 0 0 0 0 0 0 0 0 0 0 0 0 0 0 0 -0 -0 -0 0 0 0 0 0 0 0 0 0 0 0 -0 0 0
0 -0 -0 -0 -0 -0 -0 -0 0 -0 -0 0 0 0 0 0 0 0 0 0 0 0 0 0 0 -0 -0 -0 0 0 0 0 0 0 0 -0 0 0 0 0 0 0 0
0 -0 -0 -0 0 -0 -0 -0 0 0 0 0 0 0 0 0 0 0 0 0 0 0 0 0 0 0 -0 0 0 0 0 0 0 0 0 0 0 0 0 0 0 0 0
0 0 0 0 0 0 0 0 0 0 0 0 0 0 0 0 0 0 0 0 0 0 0 0 0 0 0 0 0 0 0 0 0 0 -0 -0 0 0 0 0 0 0 0
0 1 0 0 0 0 0 0 0 0 0 1 0 1 0 0 0 0 0 0 0 0 0 0 0 0 0 0 0 0 0 0 0 0 0 0 0 0 0 0 0 0 0
1 1 1 1 1 0 0 0 0 0 0 1 1 1 0 0 1 1 1 0 0 0 0 0 0 0 0 0 0 0 0 0 0 0 0 0 0 0 0 0 0 0 0
0 0 1 2 2 2 2 1 0 0 0 0 1 1 1 1 1 1 1 1 1 0 0 0 0 0 0 0 0 0 0 0 0 0 0 0 0 0 0 0 0 0 0
1 2 3 3 2 1 1 1 1 1 1 1 0 0 1 1 1 0 0 0 0 0 0 0 1 0 0 0 0 0 0 0 0 0 0 0 0 0 0 0 0 0 0
2 2 2 1 2 1 1 1 1 1 1 1 1 0 0 0 0 0 0 -0 0 0 0 0 0 0 0 0 0 0 0 0 0 0 0 0 0 0 0 0 0 0 0
2 2 1 1 1 1 1 0 0 0 0 0 0 0 0 0 0 0 0 0 0 0 0 0 0 0 0 0 0 0 0 0 0 0 0 0 0 0 0 0 0 0 0
1 1 0 0 0 0 0 0 0 0 0 0 0 0 0 0 0 0 0 0 0 0 0 0 0 0 0 0 0 0 0 0 0 0 0 0 0 0 0 0 0 0 0
0 0 0 0 0 0 0 0 0 0 0 0 0 0 0 0 0 0 0 0 0 0 0 0 0 0 0 0 0 0 0 0 0 0 0 0 0 0 0 0 0 0 0
0 0 0 0 0 0 0 0 0 0 0 0 0 0 0 0 0 0 0 0 0 0 0 0 0 0 0 0 0 0 0 0 0 0 0 0 0 0 0 0 0 0 0
0 0 0 0 0 0 0 0 0 0 0 0 0 0 0 0 0 0 0 0 0 0 0 0 0 0 0 0 0 0 0 0 0 0 0 0 0 0 0 0 0 0 0
0 0 0 0 0 0 0 0 0 -0 -0 0 0 0 0 0 0 0 0 0 0 0 0 0 0 0 0 0 0 0 0 0 0 0 0 0 0 0 0 0 0 0 0
0 0 0 0 0 0 0 0 0 0 0 -0 -0 0 0 0 0 0 0 0 0 0 0 0 0 0 0 0 0 0 0 0 0 0 0 0 0 0 0 0 0 0 0
0 0 0 0 0 0 0 0 0 0 0 0 -0 -0 0 0 0 0 0 0 0 0 0 0 0 0 0 0 0 0 0 0 0 0 0 0 0 0 0 0 0 0 0
Wind_Speed_500mb
48 40 33 35 36 42 44 49 40 33 38 38 31 23 22 18 15 14 15 16 4 3 14 19 18 16 15 13 6 13 11 9 12 10 9 7 1 6 6 7 15 17 15
51 48 43 41 41 42 46 52 47 43 42 37 34 24 25 22 28 14 16 16 7 13 13 21 23 17 13 10 11 10 6 3 8 9 19 12 3 7 16 12 17 17 19
62 55 52 46 45 47 49 52 53 45 42 38 33 29 29 28 18 12 19 14 11 9 10 11 14 19 15 14 14 9 5 5 9 10 12 4 4 12 8 9 10 17 19
56 56 56 50 46 46 49 45 51 45 43 39 41 37 26 24 22 21 26 20 15 10 14 10 13 18 11 10 12 9 3 6 6 15 11 13 3 8 13 12 14 15 17
62 68 65 51 36 37 47 47 49 44 48 47 45 41 32 31 17 23 26 29 20 12 12 11 11 14 17 9 10 12 5 7 3 10 11 4 3 15 9 15 16 23 16
62 66 68 56 44 39 37 44 52 52 52 55 50 45 37 29 29 27 28 32 21 18 16 15 10 7 13 18 10 7 6 5 1 3 5 5 1 4 5 10 15 15 18
61 68 75 68 58 53 47 45 51 54 55 58 56 48 42 36 36 28 27 26 23 21 23 17 11 10 16 11 13 6 4 8 8 7 4 4 1 3 5 8 12 11 18
76 73 78 73 66 64 55 51 51 53 55 58 59 54 47 43 40 35 31 30 32 24 20 26 18 15 14 8 21 12 8 14 13 9 14 13 7 3 4 2 5 6 16
67 73 84 77 71 72 67 61 56 52 54 59 60 58 56 51 48 44 41 38 30 28 21 24 28 28 19 14 13 11 10 10 9 8 8 9 12 9 1 4 9 5 12
59 64 80 90 78 74 66 57 66 63 50 50 58 60 59 58 55 49 46 44 39 39 34 34 32 33 27 21 18 20 17 15 14 10 9 13 7 11 8 6 9 4 5
63 67 75 84 87 84 81 74 57 53 64 66 58 56 57 56 55 56 52 47 39 38 32 32 32 33 33 24 25 22 21 17 20 21 18 12 10 3 8 9 8 7 5
54 58 65 65 74 83 85 79 74 65 51 61 68 59 54 58 56 55 52 47 43 41 40 32 30 37 33 33 33 28 24 12 16 10 14 14 9 9 13 12 10 9 9
44 48 55 60 46 60 69 74 80 83 66 55 64 68 61 59 59 55 53 54 49 43 40 36 35 36 33 27 30 27 24 16 17 23 18 16 12 13 14 14 17 19 14
34 32 36 39 45 40 52 52 67 84 77 67 59 72 75 63 61 55 53 54 57 52 43 37 47 43 40 33 30 32 27 24 20 21 23 17 19 19 19 21 21 20 22
38 30 26 24 25 24 26 32 43 64 81 82 73 70 77 67 65 60 54 48 47 46 42 42 40 42 39 39 36 35 33 29 22 25 25 23 23 25 26 24 23 21 18
33 28 32 41 42 38 36 30 27 30 44 73 80 68 67 68 66 64 56 50 51 50 47 50 47 43 43 38 35 35 33 29 23 26 30 27 29 31 28 24 22 20 18
34 32 46 47 45 39 29 32 30 29 33 33 42 51 65 68 66 67 55 53 54 53 56 53 46 46 44 42 37 35 36 33 34 28 26 27 29 26 21 20 19 20 19
33 37 43 37 32 30 32 34 35 45 44 38 43 48 54 56 58 56 51 65 68 65 57 57 48 45 47 42 39 35 38 36 38 36 33 31 27 25 21 18 17 16 18
46 48 42 33 24 21 20 28 31 32 34 38 42 51 55 52 50 54 56 68 52 58 59 61 50 45 45 46 41 40 44 41 43 41 36 28 26 27 23 18 16 12 12
42 37 30 24 21 21 25 28 30 29 26 28 29 38 43 45 44 47 51 53 59 57 63 67 52 46 43 47 44 45 46 48 46 40 34 31 27 29 26 22 20 14 12
36 30 22 17 18 21 20 20 22 24 26 28 34 25 26 23 26 33 42 53 58 59 66 65 56 59 55 58 47 46 48 45 42 38 37 34 31 30 25 21 17 14 14
31 23 16 15 15 11 7 6 2 5 14 23 32 31 22 18 18 20 25 30 43 61 61 67 68 66 70 52 44 42 41 38 38 36 36 34 36 33 28 24 22 18 14
30 22 21 29 23 18 11 10 16 23 17 9 9 18 24 27 24 18 22 16 23 32 36 49 70 64 57 49 44 37 35 33 36 41 47 47 41 32 29 25 21 19 19
33 30 34 26 22 15 10 10 19 27 26 23 9 13 16 15 20 21 19 20 28 30 30 46 38 33 34 35 31 27 32 40 33 26 26 28 29 28 25 24 26 22 18
39 39 36 25 17 12 12 17 14 16 25 33 40 36 23 18 16 18 18 28 33 32 32 39 35 39 38 36 34 36 38 39 35 32 28 24 21 21 24 26 27 30 36
39 42 27 24 19 14 19 15 13 18 17 26 26 34 39 43 44 49 52 49 47 43 35 35 44 46 41 39 35 35 34 32 30 28 29 31 31 31 34 38 40 38 33
Wind_Direction_500mb
189 191 185 187 189 193 197 194 199 190 193 195 203 204 186 180 226 207 180 174 261 275 246 236 247 257 240 247 280 293 308 353 47 133 168 178 316 218 177 122 172 172 143
188 190 189 187 193 192 193 190 197 196 200 201 205 206 202 198 188 223 192 190 259 279 250 233 244 248 246 252 267 270 324 43 347 57 114 121 76 193 129 134 158 142 153
188 192 194 194 196 197 195 198 199 206 208 201 207 198 208 210 216 220 195 200 229 251 232 218 270 250 254 253 266 243 231 124 17 39 62 92 129 146 129 113 136 152 146
194 199 199 200 202 205 200 204 205 208 208 201 205 207 211 228 241 242 244 237 215 223 214 243 302 237 261 240 226 213 217 98 41 54 55 24 6 99 131 148 170 168 165
200 201 203 209 211 209 208 206 206 213 211 207 209 215 224 224 249 233 227 225 234 198 219 243 286 258 236 195 216 221 203 157 72 18 32 340 110 130 125 154 166 181 174
204 208 208 207 210 206 212 213 213 210 205 207 212 218 224 222 232 234 238 225 215 212 237 231 274 270 226 196 196 216 171 126 254 318 31 73 60 234 178 168 170 182 184
198 206 207 207 209 207 208 207 211 210 208 209 211 216 223 221 226 232 228 220 219 223 229 233 219 224 235 219 207 215 235 218 221 235 248 98 122 250 302 200 185 179 195
208 209 213 211 214 212 214 214 215 213 210 213 215 219 220 223 230 233 233 235 242 243 232 231 227 235 212 200 203 214 199 209 210 210 243 245 238 196 127 290 186 235 197
208 214 212 216 213 216 218 221 223 222 221 224 221 224 226 227 232 230 235 236 240 240 244 238 236 240 211 199 211 217 241 221 206 242 232 200 181 226 96 131 158 262 208
205 216 216 217 219 218 223 225 231 231 226 225 228 230 230 232 234 232 236 237 238 238 250 243 230 226 212 202 227 233 263 268 253 244 219 201 194 211 204 231 209 206 279
211 214 217 222 215 226 227 226 225 233 229 232 233 230 232 229 233 233 232 232 234 236 229 228 232 222 211 219 226 240 266 263 248 242 219 190 164 173 214 239 205 211 272
195 208 214 216 221 227 227 233 233 238 239 241 237 233 237 232 229 230 228 231 233 229 231 235 225 215 214 221 233 248 249 257 233 221 187 183 215 242 278 273 258 257 261
179 192 207 215 212 220 228 229 236 240 240 250 234 231 235 234 231 230 230 228 232 234 228 235 229 221 220 224 238 244 244 273 230 214 218 219 232 256 268 268 265 255 254
172 177 167 178 200 217 227 233 237 237 239 243 240 237 234 233 232 231 230 228 229 229 234 239 233 237 238 235 238 242 250 254 230 221 235 235 239 252 263 278 264 256 253
164 170 183 189 205 214 221 238 243 242 242 240 243 247 235 237 237 229 228 228 225 224 225 241 245 236 233 232 233 235 239 240 242 237 247 249 257 262 267 272 261 253 258
191 201 213 212 202 206 220 220 238 242 251 249 247 247 238 241 245 240 231 229 230 229 230 236 242 241 240 234 231 230 228 236 239 245 252 257 259 267 270 266 257 257 254
195 203 184 186 193 198 209 224 230 233 242 253 245 245 248 251 248 245 234 230 234 237 237 235 240 240 242 237 233 231 223 236 243 248 251 261 266 265 261 260 252 243 242
189 176 175 183 195 213 227 240 258 251 240 236 239 245 247 250 253 256 228 230 243 232 236 233 238 237 240 240 235 237 233 227 236 247 257 265 255 251 249 245 238 239 240
177 178 186 205 224 223 245 258 258 252 253 252 253 253 254 257 250 248 244 235 229 234 234 236 230 233 241 244 242 238 236 234 237 248 254 251 241 243 241 229 223 232 231
176 181 182 201 223 255 262 253 254 258 257 265 264 261 255 257 253 244 241 239 234 235 218 227 227 227 244 247 241 234 229 238 239 241 244 238 232 228 231 234 233 231 223
179 184 190 212 243 252 251 252 251 253 250 256 256 256 263 258 250 242 237 237 236 230 227 222 245 240 245 249 229 226 225 227 231 236 240 236 228 222 224 222 226 235 246
181 187 206 221 189 175 180 172 111 324 293 266 245 236 239 249 249 243 244 240 231 232 235 240 240 236 232 231 222 222 223 227 233 239 232 224 214 213 212 212 218 221 211
193 189 192 156 150 144 137 123 66 36 23 12 207 215 228 230 234 233 230 253 217 211 218 230 228 201 197 207 209 214 222 227 236 237 226 210 201 194 187 179 178 177 173
185 180 168 155 137 139 147 147 92 61 60 66 98 174 189 204 216 217 219 215 216 213 215 199 184 182 191 198 203 208 204 204 199 182 166 157 157 159 163 174 174 171 163
192 189 195 182 170 160 149 168 134 102 90 81 78 84 110 138 165 178 190 197 198 199 194 182 178 172 167 164 163 161 157 152 151 158 160 160 160 161 162 157 152 148 140
200 191 198 196 195 177 160 160 183 160 133 108 96 94 92 98 102 105 106 109 108 111 127 144 145 139 139 138 141 149 150 149 154 156 155 150 147 143 143 139 137 136 135
Wind_Speed_850mb
48 40 33 35 36 42 44 49 40 33 38 38 31 23 22 18 15 14 15 16 4 3 14 19 18 16 15 13 6 13 11 9 12 10 9 7 1 6 6 7 15 17 15
51 48 43 41 41 42 46 52 47 43 42 37 34 24 25 22 28 14 16 16 7 13 13 21 23 17 13 10 11 10 6 3 8 9 19 12 3 7 16 12 17 17 19
62 55 52 46 45 47 49 52 53 45 42 38 33 29 29 28 18 12 19 14 11 9 10 11 14 19 15 14 14 9 5 5 9 10 12 4 4 12 8 9 10 17 19
56 56 56 50 46 46 49 45 51 45 43 39 41 37 26 24 22 21 26 20 15 10 14 10 13 18 11 10 12 9 3 6 6 15 11 13 3 8 13 12 14 15 17
62 68 65 51 36 37 47 47 49 44 48 47 45 41 32 31 17 23 26 29 20 12 12 11 11 14 17 9 10 12 5 7 3 10 11 4 3 15 9 15 16 23 16
62 66 68 56 44 39 37 44 52 52 52 55 50 45 37 29 29 27 28 32 21 18 16 15 10 7 13 18 10 7 6 5 1 3 5 5 1 4 5 10 15 15 18
61 68 75 68 58 53 47 45 51 54 55 58 56 48 42 36 36 28 27 26 23 21 23 17 11 10 16 11 13 6 4 8 8 7 4 4 1 3 5 8 12 11 18
76 73 78 73 66 64 55 51 51 53 55 58 59 54 47 43 40 35 31 30 32 24 20 26 18 15 14 8 21 12 8 14 13 9 14 13 7 3 4 2 5 6 16
67 73 84 77 71 72 67 61 56 52 54 59 60 58 56 51 48 44 41 38 30 28 21 24 28 28 19 14 13 11 10 10 9 8 8 9 12 9 1 4 9 5 12
59 64 80 90 78 74 66 57 66 63 50 50 58 60 59 58 55 49 46 44 39 39 34 34 32 33 27 21 18 20 17 15 14 10 9 13 7 11 8 6 9 4 5
63 67 75 84 87 84 81 74 57 53 64 66 58 56 57 56 55 56 52 47 39 38 32 32 32 33 33 24 25 22 21 17 20 21 18 12 10 3 8 9 8 7 5
54 58 65 65 74 83 85 79 74 65 51 61 68 59 54 58 56 55 52 47 43 41 40 32 30 37 33 33 33 28 24 12 16 10 14 14 9 9 13 12 10 9 9
44 48 55 60 46 60 69 74 80 83 66 55 64 68 61 59 59 55 53 54 49 43 40 36 35 36 33 27 30 27 24 16 17 23 18 16 12 13 14 14 17 19 14
34 32 36 39 45 40 52 52 67 84 77 67 59 72 75 63 61 55 53 54 57 52 43 37 47 43 40 33 30 32 27 24 20 21 23 17 19 19 19 21 21 20 22
38 30 26 24 25 24 26 32 43 64 81 82 73 70 77 67 65 60 54 48 47 46 42 42 40 42 39 39 36 35 33 29 22 25 25 23 23 25 26 24 23 21 18
33 28 32 41 42 38 36 30 27 30 44 73 80 68 67 68 66 64 56 50 51 50 47 50 47 43 43 38 35 35 33 29 23 26 30 27 29 31 28 24 22 20 18
34 32 46 47 45 39 29 32 30 29 33 33 42 51 65 68 66 67 55 53 54 53 56 53 46 46 44 42 37 35 36 33 34 28 26 27 29 26 21 20 19 20 19
33 37 43 37 32 30 32 34 35 45 44 38 43 48 54 56 58 56 51 65 68 65 57 57 48 45 47 42 39 35 38 36 38 36 33 31 27 25 21 18 17 16 18
46 48 42 33 24 21 20 28 31 32 34 38 42 51 55 52 50 54 56 68 52 58 59 61 50 45 45 46 41 40 44 41 43 41 36 28 26 27 23 18 16 12 12
42 37 30 24 21 21 25 28 30 29 26 28 29 38 43 45 44 47 51 53 59 57 63 67 52 46 43 47 44 45 46 48 46 40 34 31 27 29 26 22 20 14 12
36 30 22 17 18 21 20 20 22 24 26 28 34 25 26 23 26 33 42 53 58 59 66 65 56 59 55 58 47 46 48 45 42 38 37 34 31 30 25 21 17 14 14
31 23 16 15 15 11 7 6 2 5 14 23 32 31 22 18 18 20 25 30 43 61 61 67 68 66 70 52 44 42 41 38 38 36 36 34 36 33 28 24 22 18 14
30 22 21 29 23 18 11 10 16 23 17 9 9 18 24 27 24 18 22 16 23 32 36 49 70 64 57 49 44 37 35 33 36 41 47 47 41 32 29 25 21 19 19
33 30 34 26 22 15 10 10 19 27 26 23 9 13 16 15 20 21 19 20 28 30 30 46 38 33 34 35 31 27 32 40 33 26 26 28 29 28 25 24 26 22 18
39 39 36 25 17 12 12 17 14 16 25 33 40 36 23 18 16 18 18 28 33 32 32 39 35 39 38 36 34 36 38 39 35 32 28 24 21 21 24 26 27 30 36
39 42 27 24 19 14 19 15 13 18 17 26 26 34 39 43 44 49 52 49 47 43 35 35 44 46 41 39 35 35 34 32 30 28 29 31 31 31 34 38 40 38 33
Wind_Direction_850mb
189 191 185 187 189 193 197 194 199 190 193 195 203 204 186 180 226 207 180 174 261 275 246 236 247 257 240 247 280 293 308 353 47 133 168 178 316 218 177 122 172 172 143
188 190 189 187 193 192 193 190 197 196 200 201 205 206 202 198 188 223 192 190 259 279 250 233 244 248 246 252 267 270 324 43 347 57 114 121 76 193 129 134 158 142 153
188 192 194 194 196 197 195 198 199 206 208 201 207 198 208 210 216 220 195 200 229 251 232 218 270 250 254 253 266 243 231 124 17 39 62 92 129 146 129 113 136 152 146
194 199 199 200 202 205 200 204 205 208 208 201 205 207 211 228 241 242 244 237 215 223 214 243 302 237 261 240 226 213 217 98 41 54 55 24 6 99 131 148 170 168 165
200 201 203 209 211 209 208 206 206 213 211 207 209 215 224 224 249 233 227 225 234 198 219 243 286 258 236 195 216 221 203 157 72 18 32 340 110 130 125 154 166 181 174
204 208 208 207 210 206 212 213 213 210 205 207 212 218 224 222 232 234 238 225 215 212 237 231 274 270 226 196 196 216 171 126 254 318 31 73 60 234 178 168 170 182 184
198 206 207 207 209 207 208 207 211 210 208 209 211 216 223 221 226 232 228 220 219 223 229 233 219 224 235 219 207 215 235 218 221 235 248 98 122 250 302 200 185 179 195
208 209 213 211 214 212 214 214 215 213 210 213 215 219 220 223 230 233 233 235 242 243 232 231 227 235 212 200 203 214 199 209 210 210 243 245 238 196 127 290 186 235 197
208 214 212 216 213 216 218 221 223 222 221 224 221 224 226 227 232 230 235 236 240 240 244 238 236 240 211 199 211 217 241 221 206 242 232 200 181 226 96 131 158 262 208
205 216 216 217 219 218 223 225 231 231 226 225 228 230 230 232 234 232 236 237 238 238 250 243 230 226 212 202 227 233 263 268 253 244 219 201 194 211 204 231 209 206 279
211 214 217 222 215 226 227 226 225 233 229 232 233 230 232 229 233 233 232 232 234 236 229 228 232 222 211 219 226 240 266 263 248 242 219 190 164 173 214 239 205 211 272
195 208 214 216 221 227 227 233 233 238 239 241 237 233 237 232 229 230 228 231 233 229 231 235 225 215 214 221 233 248 249 257 233 221 187 183 215 242 278 273 258 257 261
179 192 207 215 212 220 228 229 236 240 240 250 234 231 235 234 231 230 230 228 232 234 228 235 229 221 220 224 238 244 244 273 230 214 218 219 232 256 268 268 265 255 254
172 177 167 178 200 217 227 233 237 237 239 243 240 237 234 233 232 231 230 228 229 229 234 239 233 237 238 235 238 242 250 254 230 221 235 235 239 252 263 278 264 256 253
164 170 183 189 205 214 221 238 243 242 242 240 243 247 235 237 237 229 228 228 225 224 225 241 245 236 233 232 233 235 239 240 242 237 247 249 257 262 267 272 261 253 258
191 201 213 212 202 206 220 220 238 242 251 249 247 247 238 241 245 240 231 229 230 229 230 236 242 241 240 234 231 230 228 236 239 245 252 257 259 267 270 266 257 257 254
195 203 184 186 193 198 209 224 230 233 242 253 245 245 248 251 248 245 234 230 234 237 237 235 240 240 242 237 233 231 223 236 243 248 251 261 266 265 261 260 252 243 242
189 176 175 183 195 213 227 240 258 251 240 236 239 245 247 250 253 256 228 230 243 232 236 233 238 237 240 240 235 237 233 227 236 247 257 265 255 251 249 245 238 239 240
177 178 186 205 224 223 245 258 258 252 253 252 253 253 254 257 250 248 244 235 229 234 234 236 230 233 241 244 242 238 236 234 237 248 254 251 241 243 241 229 223 232 231
176 181 182 201 223 255 262 253 254 258 257 265 264 261 255 257 253 244 241 239 234 235 218 227 227 227 244 247 241 234 229 238 239 241 244 238 232 228 231 234 233 231 223
179 184 190 212 243 252 251 252 251 253 250 256 256 256 263 258 250 242 237 237 236 230 227 222 245 240 245 249 229 226 225 227 231 236 240 236 228 222 224 222 226 235 246
181 187 206 221 189 175 180 172 111 324 293 266 245 236 239 249 249 243 244 240 231 232 235 240 240 236 232 231 222 222 223 227 233 239 232 224 214 213 212 212 218 221 211
193 189 192 156 150 144 137 123 66 36 23 12 207 215 228 230 234 233 230 253 217 211 218 230 228 201 197 207 209 214 222 227 236 237 226 210 201 194 187 179 178 177 173
185 180 168 155 137 139 147 147 92 61 60 66 98 174 189 204 216 217 219 215 216 213 215 199 184 182 191 198 203 208 204 204 199 182 166 157 157 159 163 174 174 171 163
192 189 195 182 170 160 149 168 134 102 90 81 78 84 110 138 165 178 190 197 198 199 194 182 178 172 167 164 163 161 157 152 151 158 160 160 160 161 162 157 152 148 140
200 191 198 196 195 177 160 160 183 160 133 108 96 94 92 98 102 105 106 109 108 111 127 144 145 139 139 138 141 149 150 149 154 156 155 150 147 143 143 139 137 136 135